This demonstration page uses our WeatherBlox Daily Observations layout. Learn more.

39.29038, -76.61219

Hourly Observations for January 25, 2019

Temp ( °F °C ) Dew Point ( °F °C ) Humidity (%) Winds ( mph kmh ) Pressure ( in mb ) Visibility ( mi km ) Precip ( " mm )
12:54 am 00:54 undefined 35 1.7 22 -5.6 59 59 undefined N/A 29.88 1012 N/A 0 0
1:54 am 01:54 undefined 33 0.6 23 -5 66 66 undefined N/A 29.88 1012 N/A 0 0
2:54 am 02:54 undefined 33 0.6 23 -5 66 66 undefined N/A 29.88 1012 N/A 0 0
3:54 am 03:54 undefined 36 2.2 21 -6.1 55 55 undefined N/A 29.94 1014 N/A 0 0
4:54 am 04:54 undefined 35 1.7 21 -6.1 57 57 undefined N/A 29.94 1014 N/A 0 0
5:54 am 05:54 undefined 35 1.7 20 -6.7 54 54 undefined N/A 29.97 1015 N/A 0 0
6:54 am 06:54 undefined 34 1.1 18 -7.8 52 52 undefined N/A 30 1016 N/A 0 0
7:54 am 07:54 undefined 34 1.1 19 -7.2 54 54 undefined N/A 30 1016 N/A 0 0
8:54 am 08:54 undefined 37 2.8 20 -6.7 50 50 undefined N/A 30.06 1018 N/A 0 0
9:54 am 09:54 undefined 38 3.3 19 -7.2 46 46 undefined N/A 30.03 1017 N/A 0 0
10:54 am 10:54 undefined 40 4.4 15 -9.4 36 36 undefined N/A 30.06 1018 N/A 0 0
11:54 am 11:54 undefined 41 5 16 -8.9 36 36 undefined N/A 30.06 1018 N/A 0 0
12:54 pm 12:54 undefined 40 4.4 17 -8.3 40 40 undefined N/A 30.06 1018 N/A 0 0
1:54 pm 13:54 undefined 41 5 13 -10.6 32 32 undefined N/A 30.06 1018 N/A 0 0
2:54 pm 14:54 undefined 39 3.9 9 -12.8 29 29 undefined N/A 30.06 1018 N/A 0 0
3:54 pm 15:54 undefined 38 3.3 7 -13.9 27 27 undefined N/A 30.06 1018 N/A 0 0
4:54 pm 16:54 undefined 37 2.8 6 -14.4 27 27 undefined N/A 30.09 1019 N/A 0 0
5:54 pm 17:54 undefined 36 2.2 6 -14.4 28 28 undefined N/A 30.12 1020 N/A 0 0
6:54 pm 18:54 undefined 35 1.7 5 -15 28 28 undefined N/A 30.15 1021 N/A 0 0
7:54 pm 19:54 undefined 34 1.1 6 -14.4 31 31 undefined N/A 30.15 1021 N/A 0 0
8:54 pm 20:54 undefined 33 0.6 7 -13.9 33 33 undefined N/A 30.15 1021 N/A 0 0
9:54 pm 21:54 undefined 32 0 6 -14.4 33 33 undefined N/A 30.15 1021 N/A 0 0
10:54 pm 22:54 undefined 31 -0.6 6 -14.4 35 35 undefined N/A 30.18 1022 N/A 0 0
11:54 pm 23:54 undefined 31 -0.6 7 -13.9 36 36 undefined N/A 30.21 1023 N/A 0 0

Powered by AerisWeather